User: anonymous   Login
Location: Tierra del Sol
(32.6128°N, 116.3319°W)
Time: 10:39:48
(UTC-07:00)
Language:

ISS - Orbit

View from above orbital plane
View from above orbital plane
View from above satellite
View from above satellite

Ground track
Ground track

The orbit data is extracted from the following two-line orbital elements,

1 25544U 98067A   18228.77963621  .00016717  00000-0  10270-3 0  9010
2 25544  51.6399  76.7376 0005511  68.1870 291.9868 15.53829455  7932
Epoch (UTC): 16 August 2018 18:42:40
Eccentricity: 0.0005511
inclination: 51.6399°
perigee height: 402 km
apogee height: 409 km
right ascension of ascending node: 76.7376°
argument of perigee: 68.1870°
revolutions per day: 15.53829455
mean anomaly at epoch: 291.9868°
orbit number at epoch: 793

The dashed part of the orbit path shows where the satellite is in the earth's shadow,  

DLR